GW4072 Weather Reports


time (UTC)temp
F
wind
direction
speed
knots
gust
knots
rain 1hr
in
rain 24hr
in
rain mn
in
humidity
%
barometer
mb
20260906205528 81 183 2.6 6.1 0.00 0.00 0.00 66 1017.9
20260906205027 82 243 1.7 5.2 0.00 0.00 0.00 66 1017.9
20260906204609 81 150 1.7 5.2 0.00 0.00 0.00 66 1018.0
20260906204027 82 6 1.7 10.4 0.00 0.00 0.00 66 1018.1
20260906203529 82 96 2.6 10.4 0.00 0.00 0.00 66 1018.2
20260906203056 82 158 1.7 7.0 0.00 0.00 0.00 65 1018.2
20260906202524 82 182 1.7 7.0 0.00 0.00 0.00 65 1018.3
20260906202030 82 143 1.7 11.3 0.00 0.00 0.00 65 1018.5
20260906201550 82 204 1.7 11.3 0.00 0.00 0.00 65 1018.4
20260906201025 82 139 2.6 11.3 0.00 0.00 0.00 64 1018.3
20260906200529 83 193 1.7 8.7 0.00 0.00 0.00 63 1018.4
20260906200054 83 172 1.7 8.7 0.00 0.00 0.00 62 1018.3
20260906195527 82 138 2.6 8.7 0.00 0.00 0.00 64 1018.3
20260906195028 82 167 3.5 7.8 0.00 0.00 0.00 64 1018.4
20260906194549 82 79 1.7 7.8 0.00 0.00 0.00 67 1018.4
20260906194027 83 113 1.7 7.0 0.00 0.00 0.00 67 1018.4
20260906193529 82 130 1.7 7.0 0.00 0.00 0.00 66 1018.4
20260906193050 82 124 2.6 7.8 0.00 0.00 0.00 67 1018.2
20260906192528 82 117 3.5 7.8 0.00 0.00 0.00 66 1018.3
20260906192028 82 172 1.7 7.0 0.00 0.00 0.00 67 1018.4
20260906191557 82 104 0.9 6.1 0.00 0.00 0.00 69 1018.5
20260906191027 82 93 2.6 7.0 0.00 0.00 0.00 69 1018.5
20260906190528 81 27 1.7 7.0 0.00 0.00 0.00 69 1018.5
20260906190107 81 167 2.6 9.6 0.00 0.00 0.00 69 1018.5
20260906185528 81 120 1.7 9.6 0.00 0.00 0.00 69 1018.6
20260906185027 82 95 0.9 7.8 0.00 0.00 0.00 68 1018.5
20260906184550 81 75 1.7 8.7 0.00 0.00 0.00 69 1018.5
20260906184027 81 96 1.7 8.7 0.00 0.00 0.00 69 1018.5
20260906183529 82 115 2.6 8.7 0.00 0.00 0.00 69 1018.4
20260906183104 82 130 2.6 7.8 0.00 0.00 0.00 68 1018.7
20260906182529 82 96 1.7 7.8 0.00 0.00 0.00 68 1018.5
20260906182032 81 51 1.7 7.8 0.00 0.00 0.00 73 1018.8
20260906181601 81 18 3.5 8.7 0.00 0.00 0.00 72 1018.9
20260906181028 80 22 2.6 8.7 0.00 0.00 0.00 73 1018.9
20260906180529 80 122 2.6 7.0 0.00 0.00 0.00 72 1018.9
20260906180112 81 0 1.7 6.1 0.00 0.00 0.00 70 1018.9
20260906175530 82 165 0.9 6.1 0.00 0.00 0.00 68 1018.9
20260906175029 82 109 2.6 7.0 0.00 0.00 0.00 68 1018.8
20260906174549 81 129 2.6 7.0 0.00 0.00 0.00 69 1018.8
20260906174029 82 112 2.6 7.0 0.00 0.00 0.00 69 1018.8
20260906173529 81 141 1.7 6.1 0.00 0.00 0.00 69 1018.9
20260906173048 81 61 0.9 6.1 0.00 0.00 0.00 70 1018.9
20260906172529 81 164 1.7 5.2 0.00 0.00 0.00 70 1019.1
20260906172028 81 58 0.9 5.2 0.00 0.00 0.00 70 1019.2
20260906171600 81 50 0.9 5.2 0.00 0.00 0.00 71 1019.1
20260906171030 81 174 0.9 5.2 0.00 0.00 0.00 71 1019.3
20260906170528 81 109 0.9 5.2 0.00 0.00 0.00 70 1019.4
20260906170118 80 353 1.7 5.2 0.00 0.00 0.00 71 1019.4
20260906165527 80 124 0.9 5.2 0.00 0.00 0.00 71 1019.5
20260906165039 80 135 0.9 3.5 0.00 0.00 0.00 72 1019.5
20260906164548 80 117 1.7 5.2 0.00 0.00 0.00 72 1019.4
20260906164029 79 249 1.7 5.2 0.00 0.00 0.00 73 1019.4
20260906163528 79 218 0.9 3.5 0.00 0.00 0.00 73 1019.6
20260906163057 79 131 0.9 4.3 0.00 0.00 0.00 73 1019.7
20260906162528 79 139 0.9 7.0 0.00 0.00 0.00 75 1019.6
20260906162028 78 81 1.7 7.0 0.00 0.00 0.00 75 1019.7
20260906161557 78 178 0.9 3.5 0.00 0.00 0.00 75 1019.7
20260906161028 78 133 0.9 3.5 0.00 0.00 0.00 77 1019.6
20260906160527 77 207 1.7 5.2 0.00 0.00 0.00 77 1019.6
20260906160055 77 181 1.7 5.2 0.00 0.00 0.00 78 1019.6
20260906155530 76 168 1.7 4.3 0.00 0.00 0.00 79 1019.7
20260906155028 76 216 0.9 4.3 0.00 0.00 0.00 80 1019.6
20260906154558 75 205 1.7 7.0 0.00 0.00 0.00 81 1019.6
20260906154028 74 207 1.7 7.0 0.00 0.00 0.00 82 1019.5
20260906153529 74 147 1.7 7.0 0.00 0.00 0.00 83 1019.4
20260906153056 73 120 0.9 4.3 0.00 0.00 0.00 85 1019.4
20260906152530 72 139 1.7 4.3 0.00 0.00 0.00 85 1019.3
20260906152027 72 150 1.7 6.1 0.00 0.00 0.00 85 1019.4
20260906151608 72 218 1.7 6.1 0.00 0.00 0.00 85 1019.4
20260906151029 71 140 0.9 4.3 0.00 0.00 0.00 87 1019.5
20260906150527 71 194 1.7 4.3 0.00 0.00 0.00 88 1019.5
20260906150107 70 157 0.9 4.3 0.00 0.00 0.00 88 1019.5
20260906145529 70 170 0.9 2.6 0.00 0.00 0.00 89 1019.5
20260906145029 69 165 0.9 4.3 0.00 0.00 0.00 90 1019.6
20260906144559 69 143 0.9 5.2 0.00 0.00 0.00 90 1019.7
20260906144027 69 191 1.7 5.2 0.00 0.00 0.00 90 1019.8
20260906143529 68 174 0.9 2.6 0.00 0.00 0.00 90 1019.7
20260906143124 68 160 0.9 2.6 0.00 0.00 0.00 91 1019.8
20260906142528 68 100 0.9 4.3 0.00 0.00 0.00 91 1020.0
20260906142027 68 169 0.9 4.3 0.00 0.00 0.00 91 1019.9
20260906141557 68 145 0.9 3.5 0.00 0.00 0.00 91 1020.1
20260906141031 68 124 0.9 3.5 0.00 0.00 0.00 91 1020.2
20260906140529 68 127 0.0 3.5 0.00 0.00 0.00 91 1020.3
20260906140050 67 0 0.0 2.6 0.00 0.00 0.00 91 1020.3
20260906135528 67 116 0.0 2.6 0.00 0.00 0.00 92 1020.4
20260906135026 67 145 0.0 1.7 0.00 0.00 0.00 92 1020.5
20260906134632 67 0 0.0 1.7 0.00 0.00 0.00 92 1020.6
20260906134028 67 0 0.0 1.7 0.00 0.00 0.00 92 1020.8
20260906133529 66 0 0.0 2.6 0.00 0.00 0.00 93 1020.7
20260906133051 66 0 0.0 2.6 0.00 0.00 0.00 93 1020.8
20260906132528 66 75 0.0 2.6 0.00 0.00 0.00 93 1020.8
20260906132028 66 0 0.0 1.7 0.00 0.00 0.00 93 1020.5
20260906131556 66 91 0.0 1.7 0.00 0.00 0.00 93 1020.3
20260906131027 65 38 0.0 2.6 0.00 0.00 0.00 94 1020.2
20260906130528 65 0 0.0 2.6 0.00 0.00 0.00 94 1020.2
20260906130057 65 35 0.0 1.7 0.00 0.00 0.00 94 1020.2
20260906125531 65 39 0.0 2.6 0.00 0.00 0.00 94 1020.1
20260906125031 65 91 0.0 2.6 0.00 0.00 0.00 94 1020.1
20260906124558 64 103 0.0 1.7 0.00 0.00 0.00 94 1019.9
20260906124030 64 112 0.0 1.7 0.00 0.00 0.00 94 1020.0
20260906123527 64 0 0.0 2.6 0.00 0.00 0.00 94 1019.9
20260906123115 64 100 0.0 2.6 0.00 0.00 0.00 94 1019.7
20260906122528 64 102 0.0 1.7 0.00 0.00 0.00 94 1019.5
20260906122029 64 0 0.0 1.7 0.00 0.00 0.00 94 1019.7
20260906121548 64 0 0.0 3.5 0.00 0.00 0.00 94 1019.5
20260906121028 64 103 0.0 3.5 0.00 0.00 0.00 94 1019.3
20260906120528 64 136 0.0 3.5 0.00 0.00 0.00 95 1019.5
20260906120109 64 0 0.0 2.6 0.00 0.00 0.00 95 1019.5
20260906115528 64 0 0.0 0.9 0.00 0.00 0.00 95 1019.5
20260906115027 64 0 0.0 0.9 0.00 0.00 0.00 95 1019.6
20260906114558 64 0 0.0 0.9 0.00 0.00 0.00 95 1019.7
20260906114026 64 0 0.0 2.6 0.00 0.00 0.00 95 1019.5
20260906113527 64 0 0.0 2.6 0.00 0.00 0.00 95 1019.4
20260906113052 64 0 0.0 1.7 0.00 0.00 0.00 94 1019.4
20260906112528 64 0 0.0 0.9 0.00 0.00 0.00 95 1019.2
20260906112029 64 0 0.0 0.9 0.00 0.00 0.00 95 1019.1
20260906111548 64 0 0.0 1.7 0.00 0.00 0.00 95 1019.2
20260906111029 64 0 0.0 2.6 0.00 0.00 0.00 95 1019.1
20260906110529 64 154 0.0 2.6 0.00 0.00 0.00 95 1018.9
20260906110056 64 0 0.0 2.6 0.00 0.00 0.00 95 1018.9
20260906105527 64 0 0.0 2.6 0.00 0.00 0.00 95 1019.0
20260906105028 64 120 0.9 1.7 0.00 0.00 0.00 95 1019.1
20260906104556 64 0 0.0 0.9 0.00 0.00 0.00 95 1019.2
20260906104031 64 0 0.0 1.7 0.00 0.00 0.00 95 1019.2
20260906103530 64 0 0.0 1.7 0.00 0.00 0.00 95 1019.3
20260906103059 64 0 0.0 0.9 0.00 0.00 0.00 95 1019.3
20260906102528 64 0 0.0 0.9 0.00 0.00 0.00 95 1019.3
20260906102027 64 0 0.0 0.0 0.00 0.00 0.00 95 1019.2
20260906101548 64 0 0.0 0.0 0.00 0.00 0.00 95 1019.1
20260906101028 63 0 0.0 0.0 0.00 0.00 0.00 95 1019.1
20260906100527 63 0 0.0 0.0 0.00 0.00 0.00 95 1018.9
20260906100057 63 0 0.0 0.0 0.00 0.00 0.00 95 1019.0
20260906095527 63 0 0.0 0.0 0.00 0.00 0.00 95 1019.0
20260906095031 63 0 0.0 0.0 0.00 0.00 0.00 95 1018.8
20260906094604 63 0 0.0 0.0 0.00 0.00 0.00 94 1018.8
20260906094028 63 0 0.0 0.0 0.00 0.00 0.00 94 1018.8
20260906093528 64 0 0.0 0.0 0.00 0.00 0.00 94 1018.7
20260906093050 64 0 0.0 0.9 0.00 0.00 0.00 94 1018.6
20260906092527 64 0 0.0 0.9 0.00 0.00 0.00 94 1018.5
20260906092029 64 0 0.0 0.9 0.00 0.00 0.00 94 1018.5
20260906091605 64 0 0.0 1.7 0.00 0.00 0.00 94 1018.4
20260906091027 64 0 0.0 1.7 0.00 0.00 0.00 94 1018.4
20260906090528 64 65 0.0 1.7 0.00 0.00 0.00 94 1018.2
20260906090055 64 85 0.0 1.7 0.00 0.00 0.00 94 1018.2
20260906085532 64 116 0.0 1.7 0.00 0.00 0.00 94 1018.3
20260906085028 64 0 0.0 2.6 0.00 0.00 0.00 94 1018.3
20260906084559 64 0 0.0 2.6 0.00 0.00 0.00 94 1018.2
20260906084030 64 0 0.0 2.6 0.00 0.00 0.00 94 1018.2
20260906083528 64 134 0.0 3.5 0.00 0.00 0.00 94 1018.3
20260906083051 64 118 0.0 3.5 0.00 0.00 0.00 94 1018.4
20260906082527 64 117 0.0 1.7 0.00 0.00 0.00 94 1018.4
20260906082027 64 0 0.0 1.7 0.00 0.00 0.00 94 1018.5
20260906081558 64 113 0.0 0.9 0.00 0.00 0.00 94 1018.6
20260906081028 64 114 0.0 0.9 0.00 0.00 0.00 94 1018.6
20260906080529 64 0 0.0 0.9 0.00 0.00 0.00 94 1018.5
20260906075528 64 0 0.0 2.6 0.00 0.00 0.00 94 1018.6
20260906075027 64 113 0.0 2.6 0.00 0.00 0.00 94 1018.8
20260906074553 64 0 0.0 1.7 0.00 0.00 0.00 94 1018.9
20260906074027 64 0 0.0 2.6 0.00 0.00 0.00 94 1019.0
20260906073529 64 82 0.0 2.6 0.00 0.00 0.00 94 1018.8
20260906073048 64 65 0.0 1.7 0.00 0.00 0.00 94 1018.8
20260906072529 64 89 0.0 0.9 0.00 0.00 0.00 94 1019.1
20260906072029 64 0 0.0 2.6 0.00 0.00 0.00 94 1019.1
20260906071549 64 0 0.0 2.6 0.00 0.00 0.00 94 1019.1
20260906071029 64 0 0.0 1.7 0.00 0.00 0.00 93 1019.1
20260906070529 64 108 0.0 3.5 0.00 0.00 0.00 93 1019.2
20260906065528 64 0 0.0 0.9 0.00 0.00 0.00 93 1019.2
20260906065027 65 0 0.0 3.5 0.00 0.00 0.00 93 1019.3
20260906064549 65 0 0.0 3.5 0.00 0.00 0.00 93 1019.3
20260906064027 65 68 0.0 3.5 0.00 0.00 0.00 93 1019.4
20260906063528 65 0 0.0 3.5 0.00 0.00 0.00 93 1019.5
20260906063050 65 103 0.0 3.5 0.00 0.00 0.00 93 1019.5
20260906062528 65 56 0.0 3.5 0.00 0.00 0.00 93 1019.5
20260906062027 65 0 0.0 2.6 0.00 0.00 0.00 93 1019.5
20260906061552 65 62 0.0 1.7 0.00 0.00 0.00 93 1019.5
20260906061030 65 65 0.0 1.7 0.00 0.00 0.00 93 1019.5
20260906060528 65 0 0.0 0.9 0.00 0.00 0.00 93 1019.5
20260906060059 65 0 0.0 0.0 0.00 0.00 0.00 93 1019.5
20260906055527 65 0 0.0 0.0 0.00 0.00 0.00 92 1019.6
20260906055028 65 0 0.0 0.9 0.00 0.00 0.00 92 1019.5
20260906054550 65 0 0.0 0.9 0.00 0.00 0.00 92 1019.6
20260906054030 66 0 0.0 1.7 0.00 0.00 0.00 92 1019.3
20260906053529 66 0 0.0 1.7 0.00 0.00 0.00 92 1019.2
20260906053108 66 0 0.0 0.9 0.00 0.00 0.00 92 1019.3
20260906052528 66 0 0.0 0.9 0.00 0.00 0.00 92 1019.3
20260906052028 66 0 0.0 1.7 0.00 0.00 0.00 92 1019.4
20260906051548 66 0 0.0 1.7 0.00 0.00 0.00 91 1019.3
20260906051027 66 0 0.0 1.7 0.00 0.00 0.00 92 1019.2
20260906050528 66 38 0.0 1.7 0.00 0.00 0.00 92 1019.2
20260906050058 66 0 0.0 0.9 0.00 0.00 0.00 92 1019.0
20260906045528 66 30 0.0 1.7 0.00 0.00 0.00 91 1019.1
20260906045029 66 0 0.0 1.7 0.00 0.00 0.00 91 1019.0
20260906044548 66 0 0.0 0.9 0.00 0.00 0.00 91 1018.9
20260906044032 66 95 0.0 0.9 0.00 0.00 0.00 91 1018.9
20260906043529 67 0 0.0 1.7 0.00 0.00 0.00 91 1019.0
20260906043102 67 0 0.0 1.7 0.00 0.00 0.00 91 1018.8
20260906042527 67 0 0.0 0.9 0.00 0.00 0.00 91 1018.7
20260906042028 67 58 0.0 0.9 0.00 0.00 0.00 90 1018.8
20260906041600 67 0 0.0 0.9 0.00 0.00 0.00 90 1018.8
20260906041028 67 0 0.0 0.9 0.00 0.00 0.00 90 1018.9
20260906040526 67 0 0.0 0.9 0.00 0.00 0.00 90 1019.0
20260906040056 67 0 0.0 0.9 0.00 0.00 0.00 90 1019.0
20260906035529 67 0 0.0 0.9 0.00 0.00 0.00 90 1019.0
20260906035029 67 0 0.0 0.9 0.00 0.00 0.00 89 1018.9
20260906034548 68 0 0.0 0.9 0.00 0.00 0.00 89 1018.9
20260906034027 68 0 0.0 0.9 0.00 0.00 0.00 89 1018.9
20260906033527 68 0 0.0 1.7 0.00 0.00 0.00 88 1018.9
20260906033103 68 0 0.0 1.7 0.00 0.00 0.00 88 1018.9
20260906032528 68 113 0.0 1.7 0.00 0.00 0.00 88 1019.2
20260906032027 68 0 0.0 1.7 0.00 0.00 0.00 88 1019.0
20260906031553 68 0 0.0 0.9 0.00 0.00 0.00 87 1019.1
20260906031026 68 148 0.0 0.9 0.00 0.00 0.00 87 1019.1
20260906030527 69 0 0.0 0.9 0.00 0.00 0.00 87 1019.1
20260906030054 69 0 0.0 0.9 0.00 0.00 0.00 87 1019.1
20260906025528 69 0 0.0 0.9 0.00 0.00 0.00 87 1019.0
20260906025028 69 0 0.0 3.5 0.00 0.00 0.00 87 1019.0
20260906024556 69 136 0.0 3.5 0.00 0.00 0.00 86 1019.1
20260906024029 69 0 0.0 0.9 0.00 0.00 0.00 86 1019.2
20260906023530 69 0 0.0 0.9 0.00 0.00 0.00 86 1019.1
20260906023057 69 89 0.0 0.9 0.00 0.00 0.00 86 1019.1
20260906022528 69 0 0.0 0.9 0.00 0.00 0.00 86 1019.1
20260906022030 70 0 0.0 0.9 0.00 0.00 0.00 86 1018.9
20260906021558 70 98 0.0 1.7 0.00 0.00 0.00 85 1019.0
20260906021029 70 0 0.0 1.7 0.00 0.00 0.00 85 1019.0
20260906020527 70 0 0.0 1.7 0.00 0.00 0.00 85 1018.9
20260906020106 70 0 0.0 0.9 0.00 0.00 0.00 85 1019.0
20260906015528 70 0 0.0 0.9 0.00 0.00 0.00 84 1019.0
20260906015026 71 0 0.0 0.9 0.00 0.00 0.00 84 1019.0
20260906014602 71 0 0.0 0.9 0.00 0.00 0.00 84 1019.1
20260906014029 71 0 0.0 0.9 0.00 0.00 0.00 84 1019.0
20260906013528 71 0 0.0 0.9 0.00 0.00 0.00 83 1019.1
20260906013108 71 0 0.0 0.9 0.00 0.00 0.00 83 1018.9
20260906012529 71 0 0.0 0.9 0.00 0.00 0.00 83 1018.7
20260906012029 71 0 0.0 0.9 0.00 0.00 0.00 82 1018.6
20260906011601 71 106 0.0 0.9 0.00 0.00 0.00 82 1018.5
20260906011028 72 0 0.0 0.9 0.00 0.00 0.00 82 1018.3
20260906010527 72 0 0.0 0.9 0.00 0.00 0.00 81 1018.2
20260906010048 73 0 0.0 0.9 0.00 0.00 0.00 80 1018.2
20260906005528 73 0 0.0 1.7 0.00 0.00 0.00 79 1018.0
20260906005031 73 0 0.0 1.7 0.00 0.00 0.00 79 1017.9
20260906004543 74 110 0.0 0.9 0.00 0.00 0.00 78 1017.7
20260906004033 74 0 0.0 2.6 0.00 0.00 0.00 78 1017.6
20260906003528 74 134 0.0 2.6 0.00 0.00 0.00 77 1017.4
20260906003046 74 101 0.0 0.9 0.00 0.00 0.00 76 1017.2
20260906002529 75 141 0.0 2.6 0.00 0.00 0.00 76 1017.3
20260906002027 75 119 0.0 6.1 0.00 0.00 0.00 75 1017.2
20260906001551 75 0 0.9 6.1 0.00 0.00 0.00 74 1017.2
20260906001029 76 118 0.9 6.1 0.00 0.00 0.00 74 1017.2
20260906000528 76 113 1.7 6.1 0.00 0.00 0.00 73 1017.1
20260905235529 76 96 1.7 4.3 0.00 0.00 0.00 73 1016.8
20260905235027 76 109 1.7 6.1 0.00 0.00 0.00 72 1016.8
20260905234550 77 114 1.7 6.1 0.00 0.00 0.00 72 1016.7
20260905234027 77 97 1.7 6.1 0.00 0.00 0.00 71 1016.6
20260905233529 77 138 1.7 7.0 0.00 0.00 0.00 71 1016.6
20260905233049 77 4 1.7 7.0 0.00 0.00 0.00 71 1016.6
20260905232529 78 169 1.7 7.0 0.00 0.00 0.00 72 1016.5
20260905232030 78 153 1.7 7.0 0.00 0.00 0.00 72 1016.3
20260905231550 78 124 1.7 7.0 0.00 0.00 0.00 71 1016.4
20260905231029 78 125 1.7 7.0 0.00 0.00 0.00 71 1016.3
20260905230526 78 113 1.7 7.0 0.00 0.00 0.00 71 1016.4
20260905230058 78 180 1.7 5.2 0.00 0.00 0.00 71 1016.4
20260905225532 78 189 1.7 5.2 0.00 0.00 0.00 70 1016.4
20260905225029 78 133 1.7 7.8 0.00 0.00 0.00 71 1016.5
20260905224552 78 58 0.9 7.8 0.00 0.00 0.00 70 1016.6
20260905224028 79 134 2.6 7.8 0.00 0.00 0.00 69 1016.7
20260905223527 79 108 0.9 7.0 0.00 0.00 0.00 70 1016.8
20260905223050 78 71 2.6 7.8 0.00 0.00 0.00 70 1016.7
20260905222530 79 89 1.7 7.8 0.00 0.00 0.00 70 1016.6
20260905222027 79 38 1.7 7.8 0.00 0.00 0.00 69 1016.8
20260905221556 79 124 0.9 7.0 0.00 0.00 0.00 69 1016.8
20260905221028 79 62 1.7 8.7 0.00 0.00 0.00 68 1016.9
20260905220528 79 15 2.6 8.7 0.00 0.00 0.00 69 1016.9
20260905220100 79 53 1.7 8.7 0.00 0.00 0.00 68 1016.9
20260905215528 79 46 2.6 11.3 0.00 0.00 0.00 69 1017.1
20260905215032 79 115 3.5 11.3 0.00 0.00 0.00 69 1017.3
20260905214554 79 25 2.6 8.7 0.00 0.00 0.00 68 1017.4
20260905214029 80 13 1.7 5.2 0.00 0.00 0.00 68 1017.5
20260905213528 79 56 0.9 5.2 0.00 0.00 0.00 68 1017.7
20260905213048 79 185 2.6 8.7 0.00 0.00 0.00 68 1017.8
20260905212528 79 65 2.6 8.7 0.00 0.00 0.00 68 1017.8
20260905212030 79 46 2.6 6.1 0.00 0.00 0.00 67 1017.8
20260905211558 79 149 1.7 6.1 0.00 0.00 0.00 68 1018.0
20260905211027 79 133 1.7 6.1 0.00 0.00 0.00 67 1018.2
20260905210528 79 53 1.7 6.1 0.00 0.00 0.00 67 1018.2